Probability
0 0 0 0 0 0 0 0 0 0 0 0 0 0 0 0 0 0 0 0 0 0 0 0 0 0 0 0 0 0 0 0 0 0 0 0 0 0 1 0 0 0 0 0 0 0 0 0 1
0 0 0 0 0 0 0 0 0 0 0 0 0 0 0 0 0 0 0 0 0 0 0 0 0 0 0 0 0 0 0 0 0 0 0 0 0 0 1 0 0 0 0 0 0 0 0 1 2
0 0 0 0 0 0 0 0 0 0 0 0 0 0 0 0 0 0 0 0 0 0 0 0 0 0 0 0 0 0 0 0 0 0 0 0 0 0 0 0 0 0 0 0 0 0 0 2 3
0 0 0 0 0 0 0 0 0 0 0 0 0 0 0 0 0 0 0 0 0 0 0 0 0 0 0 0 0 0 0 0 0 0 0 0 0 0 0 0 0 0 0 0 0 0 0 1 1
0 0 0 0 0 0 0 0 0 0 0 0 0 0 0 0 0 0 0 0 0 0 0 0 0 0 0 0 0 0 0 0 0 0 0 0 1 1 0 0 0 0 0 0 0 0 0 0 0
0 0 0 0 0 0 0 0 0 0 0 0 0 0 0 0 0 0 0 0 0 0 0 0 0 0 0 0 0 0 0 0 0 0 0 0 1 2 1 1 1 0 0 0 0 0 0 0 0
0 0 0 0 0 0 0 0 0 0 0 0 0 0 0 0 0 0 0 0 0 0 0 0 0 0 0 0 0 0 0 0 0 0 0 0 1 2 2 2 1 0 0 0 0 0 0 0 0
0 0 0 0 0 0 0 0 1 1 0 0 0 0 0 0 0 1 1 1 0 0 0 0 0 0 0 0 0 0 0 0 0 0 0 0 0 1 1 1 1 0 0 0 0 0 0 0 0
0 0 0 0 0 0 0 0 1 1 0 0 0 0 0 0 0 1 2 1 0 0 0 0 0 0 0 0 0 0 0 0 0 0 0 0 0 0 0 0 0 0 0 0 0 0 0 0 0
0 0 0 0 0 0 0 0 1 1 0 0 0 0 0 0 0 1 2 1 0 0 0 0 0 0 0 0 0 0 0 0 0 0 0 0 0 0 0 0 0 0 0 0 0 0 0 0 0
0 0 0 0 0 0 0 0 0 0 0 0 0 0 0 0 0 1 1 0 0 0 0 0 0 0 0 0 0 0 0 0 0 0 0 0 0 0 0 0 0 0 0 0 0 0 0 0 0
0 0 0 0 0 0 0 0 1 0 0 0 0 0 0 0 0 0 0 0 0 0 0 0 0 0 0 0 0 0 0 0 0 0 0 0 0 0 0 0 0 0 0 0 0 0 0 0 0
0 0 0 0 0 0 0 0 0 0 0 1 1 0 0 0 0 0 0 0 0 0 0 0 0 0 0 0 0 0 0 0 0 0 0 0 0 0 0 0 0 0 0 0 0 0 0 0 0
0 0 0 0 0 0 0 0 0 0 1 2 2 1 1 1 0 0 0 0 0 0 0 0 0 0 0 0 0 0 0 0 0 0 0 0 0 0 0 0 0 0 0 0 0 0 0 0 0
0 0 0 0 0 0 0 0 0 1 2 4 3 2 1 1 0 0 0 0 0 0 0 0 0 0 0 0 0 0 0 0 0 0 0 0 0 0 0 0 0 0 0 0 0 0 0 0 0
1 1 0 0 0 0 0 0 0 1 2 3 3 3 2 1 0 0 0 0 0 0 0 1 1 1 0 0 0 0 0 0 0 0 0 0 0 0 0 0 0 0 0 0 0 0 0 0 0
2 1 0 0 0 0 0 0 0 0 1 2 4 5 3 1 0 0 0 0 0 0 0 1 1 1 0 0 0 0 0 0 0 0 0 0 0 0 0 0 0 0 0 0 0 0 0 0 0
1 1 0 0 0 0 0 0 0 0 0 2 4 6 5 2 0 0 0 0 0 0 0 0 0 0 0 0 0 0 0 0 0 0 0 0 0 0 0 0 0 0 0 0 0 0 0 0 0
0 0 0 0 0 0 0 0 0 0 0 1 3 5 5 3 1 0 0 0 0 0 0 0 0 0 0 0 0 0 0 0 0 0 0 0 0 0 0 0 0 0 0 0 0 0 0 0 0
0 0 0 0 0 0 0 0 0 0 0 1 2 4 4 3 3 1 0 0 0 0 0 0 0 0 0 0 0 0 0 0 0 0 0 0 0 0 0 0 0 0 0 0 0 0 0 0 0
0 0 0 0 0 0 0 0 0 0 0 0 1 3 3 4 4 3 1 0 0 0 0 0 0 0 0 0 0 0 0 0 0 0 0 0 0 0 0 0 0 0 0 0 0 0 0 0 0
0 0 0 0 0 0 0 0 0 0 0 0 1 2 3 4 4 4 2 1 0 0 0 0 0 0 0 0 0 0 0 0 0 0 0 0 0 0 0 0 0 0 0 0 0 0 0 0 0
0 0 0 0 0 0 0 0 0 0 0 0 1 2 3 3 4 3 3 2 1 0 0 0 0 0 0 0 0 0 0 0 0 0 0 0 0 0 0 0 0 0 0 0 0 0 0 0 0
0 0 0 0 0 0 0 0 0 0 0 0 0 1 2 3 3 3 3 2 1 0 0 0 0 0 0 0 0 0 0 0 0 0 0 0 0 0 0 0 0 0 0 0 0 0 0 0 0
0 0 0 0 0 0 0 0 0 0 0 0 0 0 1 3 3 3 3 2 2 1 0 0 0 0 0 0 0 0 0 0 0 0 0 0 0 0 0 0 0 0 0 0 0 0 0 0 0
0 0 0 0 0 0 0 0 0 0 0 0 0 0 1 2 3 3 3 3 2 1 0 0 0 0 0 0 0 0 0 0 0 0 0 0 0 0 0 0 0 0 0 0 0 0 0 0 0
0 0 0 0 0 0 0 0 0 0 0 0 0 0 0 1 2 3 3 3 3 2 1 0 0 0 0 0 0 0 0 0 0 0 0 0 0 0 0 0 1 1 0 0 0 0 0 0 0
0 0 0 0 0 0 0 0 0 0 0 0 0 0 0 0 1 2 3 3 3 3 1 0 0 0 0 0 0 0 0 0 0 1 0 0 0 0 0 0 1 2 1 0 1 1 0 0 0
0 0 0 0 0 0 0 0 0 0 0 0 0 0 0 0 0 1 2 3 3 3 2 1 0 0 0 0 0 0 0 0 0 0 0 0 0 0 0 0 1 2 2 1 2 2 1 1 0
0 0 0 0 0 0 0 0 0 0 0 0 0 0 0 0 0 0 1 3 3 3 2 1 0 0 0 0 0 0 0 0 0 0 0 0 0 0 0 0 0 1 2 2 2 3 2 2 1
Wind_Speed
3 1 2 3 6 6 3 1 1 2 3 4 7 9 7 5 4 4 1 5 6 5 4 5 7 8 8 9 9 10 10 10 10 10 10 10 10 10 10 11 11 11 11 11 12 11 11 11 10
2 0 3 5 6 4 2 1 3 3 5 5 7 7 7 5 4 5 3 5 6 6 4 5 7 8 9 9 9 10 10 10 10 11 11 11 11 11 11 11 11 11 11 11 11 11 11 11 11
2 0 3 4 4 3 3 2 3 4 4 4 5 5 5 3 3 3 4 7 6 5 4 5 8 9 9 9 9 10 10 10 10 11 11 11 11 11 11 11 11 11 11 11 10 10 10 10 11
2 4 5 6 5 2 4 3 3 4 4 5 6 5 4 3 3 4 7 8 7 5 4 5 8 9 9 9 9 10 10 10 10 10 10 10 10 10 10 11 10 10 10 10 10 9 9 9 10
3 4 6 4 3 1 2 2 4 5 3 5 6 5 3 2 5 8 8 8 7 5 4 4 8 8 9 9 9 9 9 9 10 10 10 9 9 10 10 10 10 10 10 10 9 9 8 8 9
4 4 5 3 2 1 1 3 5 7 5 5 6 5 2 1 5 6 7 6 7 6 4 4 7 8 8 9 9 9 9 9 9 9 9 9 9 9 9 9 9 9 9 9 8 8 8 8 8
4 4 3 3 2 1 2 3 5 5 5 4 6 5 2 2 3 5 7 6 6 5 4 3 3 4 6 7 8 8 8 8 7 8 8 8 8 8 8 9 8 9 9 9 8 7 7 7 8
4 4 3 2 3 1 0 3 4 5 3 4 5 7 5 5 4 6 6 6 6 5 4 3 3 2 2 3 7 7 7 7 7 7 8 7 7 7 7 7 7 8 9 9 8 7 7 8 8
4 5 2 3 4 2 2 4 3 4 5 4 3 4 5 7 6 7 6 4 4 4 3 3 3 2 2 2 4 5 6 6 6 5 7 5 3 3 4 5 7 8 8 8 7 7 7 8 8
4 3 3 3 5 4 3 4 3 4 6 4 5 5 6 7 7 7 6 5 4 4 3 2 3 3 2 2 2 2 2 3 3 3 3 3 2 2 3 5 6 6 7 7 7 7 6 6 3
3 4 2 2 4 4 3 2 3 6 3 4 6 8 7 7 7 6 6 5 5 5 4 3 3 3 2 2 2 1 1 2 2 3 3 3 2 2 3 2 3 3 4 3 4 5 3 3 2
2 1 3 3 3 3 2 2 3 3 5 6 9 10 9 7 7 7 6 5 4 4 4 3 3 3 2 2 2 1 1 1 1 1 2 2 2 2 2 2 2 2 2 2 2 2 3 3 3
2 1 2 3 4 3 3 3 3 2 4 7 8 9 8 7 6 5 5 5 5 4 4 4 4 3 2 2 1 2 1 1 1 1 1 2 2 2 1 2 2 2 2 2 2 3 3 3 3
2 2 1 2 2 2 4 2 4 3 6 7 8 7 7 7 6 5 5 5 5 5 4 4 4 3 3 3 2 2 1 1 1 1 1 2 2 2 2 2 2 2 2 1 2 2 2 2 2
2 3 2 1 1 2 4 2 2 5 7 7 7 7 6 6 6 6 7 7 6 6 5 4 4 4 4 3 2 2 1 2 1 1 1 2 2 2 2 2 1 1 1 2 2 3 3 3 3
3 3 0 3 2 2 5 2 3 4 8 6 5 5 5 5 6 6 6 6 6 5 5 4 4 4 3 3 2 2 1 2 1 1 1 2 2 2 2 2 1 1 2 2 2 2 2 2 2
2 1 3 3 2 2 3 3 3 4 7 6 5 5 5 4 3 4 5 6 6 6 6 5 4 4 4 3 2 2 2 2 1 1 1 2 3 3 3 2 1 1 2 2 2 2 2 2 2
3 3 3 4 3 3 3 4 3 5 6 7 5 4 5 5 4 4 4 4 5 5 5 5 4 3 3 2 2 2 2 1 1 1 1 2 2 3 3 2 2 2 2 2 2 2 2 1 1
3 2 3 4 4 3 4 4 5 5 4 5 5 5 5 5 3 3 4 4 4 4 4 4 4 3 3 2 2 2 1 0 0 1 1 2 2 3 3 2 2 2 2 1 2 1 2 2 1
1 1 2 2 2 3 3 4 4 5 7 8 8 7 7 4 3 3 4 4 4 4 3 4 5 4 4 3 2 2 2 1 1 0 1 1 2 2 3 3 2 2 2 2 2 2 1 1 1
1 1 2 2 2 1 1 3 3 3 3 4 6 6 7 8 7 5 4 3 4 3 3 4 5 4 4 3 2 2 2 2 1 1 0 1 1 1 2 2 2 2 2 1 1 1 2 1 1
3 3 2 1 1 3 1 3 6 4 2 3 4 4 6 6 6 5 4 4 4 3 3 3 3 4 4 4 4 4 3 2 2 1 1 1 1 1 2 2 2 2 2 1 1 1 1 2 0
4 3 1 1 1 1 1 2 6 2 3 5 4 5 5 6 7 6 6 5 4 3 3 3 2 3 3 4 4 4 3 2 1 1 1 0 0 1 1 2 2 2 2 2 1 1 1 1 1
1 3 4 4 3 2 4 4 5 3 6 5 4 5 5 5 6 5 4 3 2 3 3 2 2 2 2 3 4 5 4 3 2 2 1 1 0 1 1 2 2 2 2 2 1 1 2 1 1
4 5 4 4 3 5 2 3 6 4 4 6 7 6 6 6 6 5 4 3 3 3 2 2 2 2 2 2 3 4 5 5 5 3 3 2 1 1 2 1 1 1 2 2 2 2 1 1 1
1 6 5 3 4 5 2 3 4 2 1 3 5 5 5 5 5 6 5 5 4 4 3 2 2 1 2 2 3 3 3 3 3 3 3 3 2 2 2 2 2 1 1 2 2 1 1 1 1
2 2 5 4 2 2 3 2 3 2 3 3 4 5 5 5 6 6 5 5 4 4 3 3 3 1 1 2 2 2 2 2 3 3 2 2 2 2 2 2 2 2 2 2 2 1 1 1 1
3 4 4 3 1 2 3 3 3 2 2 2 3 4 5 5 4 5 5 5 4 4 3 3 3 3 2 2 1 1 1 2 2 3 3 2 2 1 1 2 2 2 2 2 2 1 1 1 0
1 2 3 3 3 3 3 5 3 5 5 5 5 5 6 6 5 5 5 5 4 3 3 3 2 2 1 2 1 1 1 1 1 2 2 2 2 2 2 2 2 2 2 2 2 1 1 1 0
4 4 5 3 3 3 3 6 4 2 3 4 4 4 5 6 5 5 5 4 3 3 3 3 3 3 3 3 2 2 1 1 1 1 2 2 2 2 2 2 2 2 2 2 3 2 1 1 1
Wind_Direction
310 319 87 56 55 55 58 23 121 54 54 52 70 79 80 64 80 124 181 132 127 124 110 98 91 90 90 86 85 83 80 77 75 77 79 80 79 77 75 74 76 78 79 79 78 75 72 69 66
325 340 65 56 76 76 33 322 90 96 138 123 80 78 76 70 80 109 117 136 128 123 113 106 99 95 93 90 88 86 84 81 79 80 82 81 80 78 76 76 76 78 79 80 77 74 71 68 65
300 149 74 65 83 123 146 203 125 98 108 97 77 56 74 102 108 131 150 141 126 121 116 114 106 103 99 96 93 90 89 86 83 84 85 84 82 81 80 78 78 79 80 80 77 73 71 70 67
53 46 54 70 87 137 164 193 138 108 74 64 94 66 53 70 134 141 137 136 126 125 123 122 114 109 106 101 96 93 92 91 88 87 87 86 85 84 83 82 80 80 82 81 77 74 71 70 67
65 71 64 65 81 109 149 146 119 99 85 78 91 90 64 29 105 123 129 135 136 136 134 133 123 116 113 108 103 98 95 93 92 91 90 88 87 86 85 84 81 80 80 79 77 73 69 68 66
55 67 83 92 90 87 104 118 101 93 104 103 98 103 108 120 115 128 132 132 137 139 138 132 130 123 117 113 106 101 96 93 92 91 87 85 86 87 85 85 81 80 79 77 75 72 67 62 59
95 85 112 137 119 96 146 116 108 108 106 119 122 107 134 161 148 138 129 120 117 121 121 115 119 119 116 110 107 102 96 93 92 89 85 86 86 85 83 82 80 79 77 75 71 66 65 61 58
119 98 97 128 132 164 143 91 105 106 101 105 111 132 169 195 156 125 116 110 110 112 114 112 101 96 100 103 103 99 92 88 83 83 82 81 79 77 78 77 78 80 77 72 67 61 59 58 59
91 80 124 171 161 176 105 88 61 72 88 71 81 136 162 153 132 114 106 96 106 110 106 113 108 100 104 108 105 101 94 84 79 74 74 68 49 44 56 65 74 76 76 72 65 56 52 52 53
88 111 194 187 163 146 106 109 130 88 76 66 68 86 120 132 132 129 132 134 131 131 127 120 120 118 109 106 84 67 72 68 58 52 57 52 45 39 48 50 59 63 66 64 57 47 43 39 34
121 151 162 134 144 123 108 101 102 116 109 160 151 147 143 143 143 143 147 150 150 150 142 134 136 130 121 101 97 69 60 63 59 56 55 57 49 33 31 34 29 29 39 34 32 32 33 33 30
102 130 133 139 126 110 123 115 84 133 177 170 160 155 153 156 158 160 160 158 149 135 139 139 141 131 125 116 113 103 84 77 83 77 76 75 67 52 36 40 33 27 22 29 29 37 39 45 46
104 115 96 121 111 116 108 112 116 140 145 142 143 147 156 159 166 167 164 157 143 141 151 148 141 137 133 121 120 114 116 119 124 96 94 106 100 90 68 51 42 35 34 41 41 41 47 55 57
163 135 112 125 115 120 118 114 105 178 148 138 141 151 162 166 168 160 155 157 156 156 158 156 150 148 137 132 130 131 133 137 113 98 106 109 113 108 86 66 52 42 36 42 57 52 53 53 58
101 87 27 248 164 171 111 54 166 183 148 143 153 158 162 169 162 164 170 167 166 160 154 152 157 147 135 138 141 127 127 120 111 115 114 105 105 108 97 83 62 41 42 44 47 43 45 52 49
61 75 254 267 189 179 120 216 240 168 136 142 154 156 160 173 169 168 168 163 161 153 151 159 154 144 142 134 130 122 119 114 113 112 114 106 108 112 103 91 67 45 54 54 54 45 49 43 41
32 174 220 266 230 172 147 210 229 176 147 158 169 168 160 156 159 171 167 161 160 161 157 156 152 149 153 143 129 122 119 109 107 101 100 98 103 113 111 106 90 72 62 52 55 52 66 57 38
231 221 216 217 232 157 184 225 219 196 164 173 179 176 162 157 175 170 160 155 148 156 152 149 146 152 148 131 102 85 82 71 85 104 100 98 105 108 108 103 90 80 66 48 43 51 43 54 38
213 215 230 232 221 175 203 224 220 207 176 178 180 176 173 176 176 150 138 128 132 135 141 143 146 156 145 140 139 128 134 118 62 108 118 117 117 115 111 108 97 85 81 77 64 64 55 32 37
253 266 278 287 247 186 205 239 229 203 199 191 184 182 176 162 139 137 128 124 129 141 148 152 159 163 164 171 172 163 155 162 163 161 108 128 130 130 126 120 117 108 93 72 64 70 69 19 40
298 227 239 234 338 352 103 309 262 242 217 191 186 184 174 166 165 161 150 144 139 148 154 167 178 171 168 155 127 97 69 48 40 22 293 224 150 132 124 127 125 124 120 118 103 102 103 79 354
259 255 233 191 87 277 180 268 271 222 199 203 201 185 179 173 161 160 154 152 158 168 157 140 169 175 172 153 145 145 148 165 205 202 213 237 156 148 140 139 134 132 126 127 141 107 110 117 51
226 256 261 244 178 290 275 201 279 196 198 219 205 186 180 175 167 171 175 170 163 150 141 138 131 159 174 162 163 162 162 178 185 158 150 190 218 177 169 157 142 139 142 142 123 97 94 113 135
238 27 22 39 74 282 239 184 272 234 206 198 190 178 176 165 161 167 165 148 132 120 119 125 128 146 161 166 169 168 167 165 147 150 169 205 247 240 213 175 157 153 149 148 154 146 132 128 118
59 72 26 360 4 258 251 168 249 250 196 182 178 179 174 163 155 150 144 144 134 129 131 132 128 146 155 152 177 184 178 175 177 175 180 180 197 243 240 198 164 160 165 155 141 137 149 143 132
174 132 153 205 235 279 316 212 253 279 160 152 153 158 159 163 164 166 169 164 162 160 154 145 143 157 170 166 185 188 177 176 186 186 181 186 203 219 214 184 163 157 159 152 135 130 160 132 142
143 171 173 155 244 271 283 283 309 13 75 107 126 134 163 172 172 174 174 169 168 171 175 169 161 155 180 187 185 175 169 177 186 190 177 182 198 203 198 181 164 170 156 146 140 140 174 141 161
156 150 95 116 181 266 290 263 243 241 207 168 156 164 177 172 171 177 178 180 182 184 186 171 163 175 188 174 177 184 191 187 190 182 188 191 192 178 174 170 163 163 150 142 138 157 178 128 147
129 103 117 135 164 172 258 268 239 197 195 189 188 185 181 178 182 187 187 189 185 183 180 179 176 167 178 185 183 179 191 189 187 189 200 198 180 160 172 185 169 170 168 156 157 182 170 169 240
167 167 146 160 227 189 201 267 296 206 208 188 190 190 185 185 186 188 184 182 181 187 188 191 188 189 200 193 178 187 183 162 170 196 194 180 169 176 184 176 169 182 187 176 171 192 193 191 211